Location: Burbank
(38.7788°N, 114.0429°W)
Time: 20:48:01
(UTC+00:00)

Vanguard 2 Rocket - Pass Details

Date: 21 May 2026
Orbit: 553 x 3286 km, 32.9° (Epoch: 6 June)

Event Time Altitude Azimuth Distance (km) Brightness Sun altitude
Rises 19:44:33 0° 269° (W) 5,188 10.8 71.4°
Reaches altitude 10° 19:47:26 10° 267° (W) 4,493 10.6 71.3°
Maximum altitude 20:00:57 68° 188° (S) 2,972 12.7 70.6°
Drops below altitude 10° 20:20:38 10° 111° (ESE) 6,230 11.2 68.9°
Sets 20:25:29 0° 110° (ESE) 7,212 11.4 68.3°
